Showing default

TDS 1, 40076

Orbit data source: Space-Track

TDS 1, 40076 is a payload satellite owned by UK TSB (UK) in SSO that was launched on Tue, 08 Jul 2014 UTC via a SOYUZ-2-1B launch vehicle from the Tyuratam Missile And Space Complex (TTMTR). Payload-class satellites include a variety of spacecraft equipped with specific instruments for various scientific and technological missions. These include communications satellites like Starlink; space stations such as the ISS; scientific satellites like the Hubble; Earth observation satellites from companies like Planet Labs, Umbra, and HawkEye 360; GPS; miniature CubeSats for education and research; and military/defense satellites.

Loading next visibility...
Identifier
40076, 2014-037H
Orbit
SSO
Country
Flag of UKUK
Related business
Manufacturer
SSTL (Astrium)
Mission
Partially operational Civil Technology
Bus & Motor
SSTL-150, AOCS
Mass
157 kg wet, 157 kg dry
Launch date (UTC)
2014-07-08 (11 years ago)
Launch vehicle
SOYUZ-2-1B
Launch site
Tyuratam Missile And Space Complex (TTMTR)
Object type
Payload
Rocket body
Debris
Shape & HBR
Box, 0.5 m
Radar Cross Section
1.500 m², Medium (>0.1 m² and < 1m²)

Expand to show TLE details & history
Last TLE update: 13 hours ago

TLE from 13 hours ago
0 TDS 1
1 40076U 14037H   25301.45103445  .00012585  00000-0  81618-3 0  9997
2 40076  98.3614 266.8730 0006552 346.7620  13.3433 15.08239022613232
Epoch: 2025-10-28T10:49Z
TLE epoch observation values (Epoch: 2025-10-28T10:49:29.376Z)
Latitude
-0.00002°
Longitude
67.46226°
Altitude
540.214 km
Speed
7.595 km/s
True Right ascension
17h 47m 29s
True Declination
0° 00' 00"
Sunlit
Object was in daylight at epoch
Visualization orbit readout
Latitude
Unknown
Longitude
Unknown
Altitude
Unknown
Speed
Unknown
Apparent Right ascension
Unknown
Apparent Declination
Unknown
Sunlit
N/A
Visualization observer readout
Local Sidereal Time
19:20:40
Azimuth
Unknown
Elevation
Unknown
Doppler factor
Unknown
Orbital elements
Apogee altitude
543.138 km
Perigee altitude
534.074 km
Semi-major axis
6,916.743 km
Eccentricity
0.00066
Inclination
98.3614°
RAAN
266.873°
Arg. of periapsis
346.762°
True anomaly
13.36064°
Mean anomaly
13.3433°
Eccentric anomaly
13.35197°
Mean motion
3.77303 °/min
Orbital period
95.41 mins
BSTAR
0.00081618
Loading maneuver chart data...
Computing Atmospheric mass density...
Loading historical data...
Loading historical data...
Loading historical data...
Loading historical data...
Loading historical data...
Loading historical data...
Loading historical data...

Documentation

Showing up to 5 results
|